EW6613 Weather Reports


Display with metric or nautical units.
time (UTC)temp
F
wind
direction
speed
MPH
gust
MPH
rain 1hr
in
rain 24hr
in
rain mn
in
humidity
%
barometer
mb
20260906231547 57 31 0.0 0.0 0.00 0.28 0.19 97 1002.1
20260906230110 57 39 0.0 0.0 0.00 0.28 0.19 97 1001.9
20260906224559 57 63 0.0 0.0 0.00 0.31 0.19 96 1002.0
20260906223046 57 58 0.0 0.0 0.00 0.31 0.19 96 1002.0
20260906221556 57 43 0.0 0.0 0.00 0.31 0.19 96 1001.9
20260906220044 57 93 0.0 0.0 0.00 0.31 0.19 96 1001.8
20260906214544 57 19 0.0 0.0 0.00 0.35 0.19 96 1001.9
20260906213044 57 65 0.0 0.0 0.00 0.35 0.19 97 1001.9
20260906211544 57 68 0.0 0.0 0.00 0.35 0.19 96 1001.8
20260906210042 57 14 0.0 0.0 0.00 0.35 0.19 96 1001.8
20260906204541 58 51 0.0 0.0 0.00 0.35 0.19 96 1001.8
20260906203041 58 14 0.0 0.0 0.00 0.35 0.19 97 1001.8
20260906201541 57 32 0.0 0.0 0.01 0.35 0.19 96 1001.9
20260906200039 57 60 0.0 0.0 0.01 0.35 0.19 96 1001.8
20260906194538 57 19 0.0 0.0 0.01 0.35 0.19 95 1001.9
20260906193038 58 43 0.0 0.0 0.01 0.35 0.19 94 1001.9
20260906191537 58 103 0.0 0.0 0.00 0.35 0.18 95 1001.8
20260906190043 58 352 0.0 0.0 0.00 0.35 0.18 95 1001.9
20260906184536 58 38 0.0 0.0 0.00 0.36 0.18 94 1002.0
20260906183103 58 50 0.0 0.0 0.00 0.36 0.18 94 1002.0
20260906181534 58 39 0.0 0.0 0.00 0.36 0.18 92 1002.1
20260906180039 58 38 0.0 0.0 0.00 0.36 0.18 92 1002.3
20260906174537 58 19 0.0 0.0 0.00 0.39 0.18 92 1002.3
20260906173032 58 80 0.0 0.0 0.00 0.39 0.18 93 1002.5
20260906171533 58 25 0.0 0.0 0.00 0.39 0.18 93 1002.5
20260906170036 57 52 0.0 0.0 0.00 0.39 0.18 94 1002.5
20260906164530 57 38 0.0 0.0 0.00 0.39 0.18 93 1002.4
20260906163033 57 71 0.0 0.0 0.00 0.39 0.18 93 1002.5
20260906161529 57 82 0.0 0.0 0.00 0.39 0.18 94 1002.5
20260906160030 57 65 0.0 0.0 0.00 0.39 0.18 94 1002.6
20260906154528 57 1 0.0 0.0 0.00 0.43 0.18 93 1002.6
20260906153027 58 37 0.0 0.0 0.00 0.43 0.18 93 1002.6
20260906151530 58 61 0.0 0.0 0.00 0.43 0.18 93 1002.6
20260906150026 58 54 0.0 0.0 0.00 0.43 0.18 93 1002.6
20260906144524 58 77 0.0 0.0 0.00 0.46 0.18 93 1002.7
20260906143023 58 91 0.0 0.0 0.00 0.46 0.18 92 1002.6
20260906141521 58 67 0.0 0.0 0.00 0.46 0.18 93 1002.7
20260906140033 57 25 0.0 0.0 0.00 0.46 0.18 93 1002.9
20260906134517 57 19 0.0 0.0 0.00 0.54 0.18 95 1002.8
20260906133015 57 353 0.0 0.0 0.00 0.54 0.18 94 1002.7
20260906131513 57 46 0.0 0.0 0.00 0.54 0.18 95 1002.6
20260906130019 57 62 0.0 0.0 0.00 0.54 0.18 95 1002.4
20260906124510 56 356 0.0 0.0 0.00 0.61 0.18 96 1002.5
20260906123012 56 54 0.0 0.0 0.00 0.61 0.18 96 1002.4
20260906121521 56 19 0.0 0.0 0.00 0.61 0.18 96 1002.4
20260906120007 56 27 0.0 0.0 0.00 0.61 0.18 97 1002.5
20260906114507 56 108 0.0 0.0 0.00 0.67 0.18 97 1002.4
20260906113022 55 60 0.0 0.0 0.00 0.67 0.18 97 1002.4
20260906111506 55 40 0.0 0.0 0.00 0.67 0.18 97 1002.4
20260906110005 55 84 0.0 0.0 0.00 0.82 0.18 98 1002.4
20260906104509 55 23 0.0 0.0 0.00 0.82 0.18 98 1002.5
20260906103004 55 38 0.0 0.0 0.00 0.82 0.18 98 1002.4
20260906101503 55 69 0.0 0.0 0.01 0.82 0.18 98 1002.6
20260906100006 55 44 0.0 0.0 0.01 1.02 0.18 98 1002.5
20260906094501 55 60 0.0 0.0 0.02 1.02 0.18 99 1002.4
20260906093102 55 70 0.0 0.0 0.03 1.02 0.18 99 1002.3
20260906091559 55 23 0.0 0.0 0.03 1.02 0.17 98 1002.2
20260906090107 55 27 0.0 0.0 0.04 1.02 0.17 98 1002.1
20260906084557 56 41 0.0 0.0 0.03 1.50 0.16 99 1002.1
20260906083055 56 19 0.0 0.0 0.03 1.49 0.15 99 1001.9
20260906081558 56 67 0.0 0.0 0.03 1.48 0.14 99 1002.0
20260906080054 56 54 0.0 0.0 0.03 1.47 0.13 99 1001.9
20260906074609 56 67 0.0 0.0 0.04 1.78 0.13 99 1002.0
20260906073053 56 102 0.0 0.0 0.04 1.77 0.12 99 1001.9
20260906071553 56 28 0.0 0.0 0.04 1.76 0.11 99 1001.8
20260906070052 56 35 0.0 0.0 0.04 1.76 0.10 99 1001.8
20260906064551 56 76 0.0 0.0 0.04 1.85 0.09 99 1001.8
20260906063051 56 66 0.0 0.0 0.03 1.84 0.08 99 1001.7
20260906061556 56 347 0.0 0.0 0.03 1.83 0.07 99 1001.9
20260906060048 56 9 0.0 0.0 0.03 1.83 0.06 98 1001.8
20260906054548 56 66 0.0 0.0 0.02 1.98 0.05 98 1001.8
20260906053048 56 27 0.0 0.0 0.02 1.98 0.05 98 1001.9
20260906051559 56 49 0.0 0.0 0.02 1.97 0.04 98 1001.9
20260906050049 56 32 0.0 0.0 0.01 1.96 0.03 98 1002.0
20260906044543 56 73 0.0 0.0 0.01 2.65 0.03 98 1002.1
20260906043042 56 58 0.0 0.0 0.02 2.65 0.03 98 1002.2
20260906041543 56 83 0.0 0.0 0.02 2.65 0.02 98 1002.2
20260906040044 56 37 0.0 0.0 0.02 2.65 0.02 98 1002.3
20260906034539 56 14 0.0 0.0 0.02 3.24 0.02 98 1002.3
20260906033045 56 48 0.0 0.0 0.03 3.23 0.02 98 1002.4
20260906031539 56 56 0.0 0.0 0.03 3.22 0.01 98 1002.6
20260906030032 56 48 0.0 0.0 0.03 3.21 0.00 98 1002.7
20260906024532 56 92 0.0 0.0 0.03 3.43 3.21 98 1002.7
20260906023033 56 14 0.0 0.0 0.02 3.42 3.20 98 1002.6
20260906021529 56 36 0.0 0.0 0.01 3.41 3.19 98 1002.6
20260906020028 56 319 0.0 0.0 0.00 3.40 3.18 97 1002.7
20260906014531 56 9 0.0 0.0 0.01 3.65 3.18 97 1002.8
20260906013028 56 14 0.0 0.0 0.02 3.65 3.18 97 1002.8
20260906011534 57 88 0.0 0.0 0.02 3.65 3.18 97 1002.6
20260906010025 57 67 0.0 0.0 0.02 3.65 3.18 97 1002.8
20260906004525 57 43 0.0 0.0 0.02 3.80 3.17 97 1002.6
20260906003024 57 28 0.0 0.0 0.03 3.79 3.17 98 1002.9
20260906001523 56 71 0.0 0.0 0.02 3.78 3.16 98 1002.8
20260906000022 56 74 0.0 0.0 0.03 3.78 3.16 98 1002.9
20260905234522 56 55 0.0 0.0 0.03 3.85 3.15 98 1002.8
20260905233020 56 46 0.0 0.0 0.02 3.83 3.13 98 1002.9